Regional Weather Roundup
Issued by NWS

Home | Current Version | Previous Version | Graphics & Text | Print | Product List | Glossary On
Versions: 1 2 3 4 5 6 7 8 9 10 11 12 13 14 15 16 17 18 19 20 21 22 23 24 25 26 27 28 29 30 31 32 33 34 35 36 37 38 39 40 41 42 43 44 45 46 47 48 49 50
000
ASUS43 KDTX 012110
RWRMI
MICHIGAN HOURLY REGIONAL WEATHER ROUNDUP
NATIONAL WEATHER SERVICE DETROIT/PONTIAC MI
500 PM EDT SAT AUG 01 2015

NOTE: "FAIR" INDICATES FEW OR NO CLOUDS BELOW 12,000 FEET WITH NO
SIGNIFICANT WEATHER AND/OR OBSTRUCTION TO VISIBILITY.

MIZ047>049-052>055-059>063-066>070-074>076-081>083-012200-
SOUTHEAST LOWER MICHIGAN

CITY           SKY/WX    TMP DP  RH WIND       PRES   REMARKS
ADRIAN         SUNNY     81  52  36 NW15      29.92S
ALMA           MOSUNNY   81  47  30 W12G17    29.87F
ANN ARBOR      MOSUNNY   82  51  34 W16G24    29.89F
BAD AXE        MOSUNNY   77  53  43 W10       29.85F
CARO           PTSUNNY   79  59  49 NW5       29.85F
DETROIT CITY   SUNNY     83  50  31 W12G23    29.87F
DETROIT        MOSUNNY   81  51  35 W15G24    29.89S
FLINT          MOSUNNY   83  49  30 W17G24    29.87S
GROSSE ILE     SUNNY     84  48  28 W12G22    29.87S
HILLSDALE      MOSUNNY   81  51  34 NW18      29.94F
HOWELL         MOSUNNY   83  44  25 W16G23    29.89F

CITY           SKY/WX    TMP DP  RH WIND       PRES   REMARKS
JACKSON        MOSUNNY   77  52  41 NW14      29.91F
LAMBERTVILLE   PTSUNNY   83  53  34 W12G17    29.91F
LANSING        SUNNY     81  45  28 W17G28    29.90F
LAPEER         FAIR      82  48  31 W12G21    29.86F
MASON          SUNNY     79  49  35 W15G22    29.90F
MONROE         MOSUNNY   82  53  37 W10G23    29.88F
MT. CLEMENS    MOSUNNY   83  51  33 W15G22    29.84F
PONTIAC        MOSUNNY   82  48  30 W16       29.87F
PORT HOPE        N/A     73  57  57 SW7       29.83F
PORT HURON     PTSUNNY   75  61  60 CALM      29.86F
TRI CITIES     MOSUNNY   83  50  31 W20G25    29.85F
MIDLAND        FAIR      84  48  29 W10       29.83F
TROY           SUNNY     83  47  27 W14G23    29.89F
SAGINAW HB     PTSUNNY   82  50  32 W13G20    29.84F
$$
MIZ043>046-050>051-056>058-064>065-071>073-077>080-012200-
SOUTHWEST LOWER MICHIGAN

CITY           SKY/WX    TMP DP  RH WIND       PRES   REMARKS
BATTLE CREEK   MOSUNNY   83  52  34 NW15G24   29.94S
BENTON HARBOR  PTSUNNY   80  53  39 VRB5      29.93F
BIG RAPIDS     SUNNY     78  42  27 W15G22    29.88F
COLDWATER      SUNNY     80  50  34 W15       29.93F
FREMONT        FAIR      80  44  28 W13G18    29.90F
HOLLAND        MOSUNNY   80  54  40 SW8       29.93F
GRAND RAPIDS   MOSUNNY   82  48  30 W18       29.91F
IONIA          FAIR      82  45  26 W20G26    29.89S
KALAMAZOO      MOSUNNY   81  50  33 W14       29.93F
LUDINGTON      SUNNY     78  56  45 W7        29.90S
MARSHALL       MOSUNNY   82  53  37 W18       29.92S
MOUNT PLEASANT MOSUNNY   84  46  26 W9G20     29.85F
MUSKEGON       MOSUNNY   80  54  40 W13       29.91F
SOUTH HAVEN    PTSUNNY   78  54  43 NW5       29.93F
$$
MIZ016>042-012200-
NORTHERN LOWER MICHIGAN

CITY           SKY/WX    TMP DP  RH WIND       PRES   REMARKS
ALPENA         MOSUNNY   76  57  51 E8        29.83S
BEAVER ISLAND  MOSUNNY   74  59  59 SW15      29.84F
BELLAIRE       SUNNY     76  53  44 W10G17    29.85F
CADILLAC       SUNNY     79  48  34 W16G23    29.88S
CHARLEVOIX     SUNNY     75  59  57 W16       29.88F
FRANKFORT      SUNNY     76  58  53 W6        29.88F
GAYLORD        MOSUNNY   76  48  37 W17       29.86F
GRAYLING       SUNNY     77  52  41 W10G16    29.86S
HARBOR SPRINGS SUNNY     72  60  66 SW8       29.85S
HOUGHTON LAKE  MOSUNNY   79  50  36 W13G21    29.86F
MANISTEE       SUNNY     77  54  44 W8G16     29.89F
OSCODA         PTSUNNY   75  61  61 SE12      29.81F
PELLSTON       SUNNY     76  54  46 SW13G20   29.84S
ROGERS CITY    MOSUNNY   72  59  62 N7        29.82F
TRAVERSE CITY  PTSUNNY   81  49  32 W17G24    29.84S
$$
MIZ007>008-015-012200-
EASTERN UPPER MICHIGAN

CITY           SKY/WX    TMP DP  RH WIND       PRES   REMARKS
KINROSS        MOSUNNY   72  54  53 NW5       29.82S
MACKINAC ISLAN   N/A     73  60  64 SW12G24   29.82S
NEWBERRY       PTSUNNY   78  50  36 NW8       29.81F
MUNISING         N/A     74  60  61 NE8       29.81F
$$
MIZ004>006-011>014-085-012200-
CENTRAL UPPER MICHIGAN

CITY           SKY/WX    TMP DP  RH WIND       PRES   REMARKS
MANISTIQUE     LGT RAIN  68  61  77 SW10      29.82S
ESCANABA       CLOUDY    81  48  32 W12G23    29.80F
MENOMINEE      MOSUNNY   81  50  34 W8        29.83F
SAWYER-GWINN   MOSUNNY   81  46  30 NW17G25   29.82F
$$
MIZ001>003-009>011-084-012200-
WESTERN UPPER MICHIGAN

CITY           SKY/WX    TMP DP  RH WIND       PRES   REMARKS
IRON MOUNTAIN  MOSUNNY   79  51  37 NW10G23   29.84F
HOUGHTON       SUNNY     75  52  44 W16G24    29.81F
COPPER HARBOR    N/A     77  52  41 NW8G23    29.77F
IRONWOOD       SUNNY     75  52  43 NW10      29.82F
$$

ABBREVIATIONS USED IN REMARKS
   TC - TEMPERATURE IN CELSIUS
  WCI - WIND CHILL INDEX
   HX - HEAT INDEX
  VSB - VISIBILITY




USA.gov is the U.S. government's official web portal to all federal, state and local government web resources and services.